Home   Weather   Visalia   Past weeks

Flag for USA Past Weather in Visalia, California, USA — Yesterday and Last 2 Weeks

Now
65 °F

Clear.


Feels Like: 65 °F
Forecast: 50 / 84 °F
Wind: 6 mph from Northwest

Location: Visalia Municipal

Current Time: Apr 29, 2017 at 10:20:12 pm

Latest Report: Apr 29, 2017 at 9:56 pm


Visibility: 10 mi

Pressure: 30.11 "Hg

Humidity: 40%

Dew Point: 40 °F

Location of VisaliaLocation

Past Weather in Visalia — Graph

°F

Visalia Temperature Yesterday

Maximum temperature yesterday: 76 °F (at 2:56 pm)
Minimum temperature yesterday: 50 °F (at 5:56 am)
Average temperature yesterday: 62 °F

High & Low Weather Summary for the Past Weeks

 TemperatureHumidityPressure
High81 °F (Apr 22, 2:56 pm)100% (Apr 18, 6:26 am)30.26 "Hg (Apr 18, 6:26 am)
Low41 °F (Apr 15, 6:56 am)16% (Apr 28, 5:56 pm)29.89 "Hg (Apr 27, 4:56 pm)
Average62 °F64%30.05 "Hg
* Reported Apr 14 8:56 pm — Apr 29 8:56 pm, Visalia, Weather by CustomWeather, © 2017

Note: Actual official high and low records may vary slightly from our data, if they occured in-between our weather recording intervals... More about our weather records

Advertising

Visalia Weather History for the Previous 24 Hours

Scroll right to see more
 ConditionsComfort  
Time TempWeatherWind HumidityBarometerVisibility
8:56 pm
Sat, Apr 29
68 °FClear.6 mph36%30.08 "Hg10 mi
7:56 pm71 °FClear.5 mph29%30.07 "Hg10 mi
6:56 pm77 °FSunny.6 mph22%30.06 "Hg10 mi
5:56 pm79 °FSunny.6 mph20%30.06 "Hg10 mi
4:56 pm80 °FSunny.No wind16%30.06 "Hg10 mi
3:56 pm79 °FSunny.5 mph19%30.07 "Hg10 mi
2:56 pm79 °FSunny.No wind20%30.09 "Hg10 mi
1:56 pm76 °FSunny.5 mph19%30.11 "Hg10 mi
12:56 pm73 °FSunny.No wind27%30.12 "Hg10 mi
11:56 am71 °FSunny.6 mph34%30.13 "Hg8 mi
9:56 am67 °FSunny.13 mph33%30.12 "Hg10 mi
8:56 am62 °FSunny.10 mph39%30.11 "Hg10 mi
7:56 am56 °FSunny.9 mph51%30.11 "Hg10 mi
6:56 am49 °FSunny.6 mph69%30.09 "Hg10 mi
5:56 am47 °FClear.6 mph71%30.06 "Hg10 mi
4:56 am47 °FClear.5 mph77%30.05 "Hg10 mi
3:56 am48 °FClear.5 mph77%30.03 "Hg10 mi
2:56 am49 °FClear.5 mph71%30.01 "Hg10 mi
1:56 am49 °FClear.6 mph71%30.01 "Hg10 mi
12:56 am52 °FClear.3 mph61%30.00 "Hg10 mi
11:56 pm
Fri, Apr 28
57 °FClear.No wind46%29.97 "Hg10 mi
10:56 pm58 °FClear.5 mph47%29.96 "Hg10 mi
Weather by CustomWeather, © 2017

See weather overviewHow to use our weather pages